<?xml version="1.0" encoding="UTF-8" standalone="no" ?>
<gpx xmlns="http://www.topografix.com/GPX/1/1" xmlns:xsi="http://www.w3.org/2001/XMLSchema-instance" xsi:schemaLocation="http://www.topografix.com/GPX/1/1 http://www.topografix.com/GPX/1/1/gpx.xsd" version="1.1" creator="VisuGPX - https://www.visugpx.com">
  <metadata>
    <name>les trois randonnées BS MS PS</name>
  </metadata>
  <trk>
    <name><![CDATA[10696889-Morogues-Sncerre_2020]]></name>
    <trkseg>
      <trkpt lat="47.24309" lon="2.59241">
        <ele>239</ele>
        <time>2019-11-14T16:48:03Z</time>
      </trkpt>
      <trkpt lat="47.24312" lon="2.59328">
        <ele>234</ele>
        <time>2019-11-14T16:49:22Z</time>
      </trkpt>
      <trkpt lat="47.24295" lon="2.59371">
        <ele>233</ele>
        <time>2019-11-14T16:50:07Z</time>
      </trkpt>
      <trkpt lat="47.24277" lon="2.59439">
        <ele>230</ele>
        <time>2019-11-14T16:51:13Z</time>
      </trkpt>
      <trkpt lat="47.24247" lon="2.59485">
        <ele>230</ele>
        <time>2019-11-14T16:52:11Z</time>
      </trkpt>
      <trkpt lat="47.24217" lon="2.59544">
        <ele>226</ele>
        <time>2019-11-14T16:53:18Z</time>
      </trkpt>
      <trkpt lat="47.24179" lon="2.59623">
        <ele>223</ele>
        <time>2019-11-14T16:54:45Z</time>
      </trkpt>
      <trkpt lat="47.24139" lon="2.59752">
        <ele>221</ele>
        <time>2019-11-14T16:56:54Z</time>
      </trkpt>
      <trkpt lat="47.24119" lon="2.5988">
        <ele>218</ele>
        <time>2019-11-14T16:58:53Z</time>
      </trkpt>
      <trkpt lat="47.24163" lon="2.59864">
        <ele>217</ele>
        <time>2019-11-14T16:59:53Z</time>
      </trkpt>
      <trkpt lat="47.24215" lon="2.59881">
        <ele>215</ele>
        <time>2019-11-14T17:01:04Z</time>
      </trkpt>
      <trkpt lat="47.24329" lon="2.59885">
        <ele>217</ele>
        <time>2019-11-14T17:03:37Z</time>
      </trkpt>
      <trkpt lat="47.24403" lon="2.5987">
        <ele>219</ele>
        <time>2019-11-14T17:05:16Z</time>
      </trkpt>
      <trkpt lat="47.24424" lon="2.59875">
        <ele>220</ele>
        <time>2019-11-14T17:05:45Z</time>
      </trkpt>
      <trkpt lat="47.24448" lon="2.59891">
        <ele>222</ele>
        <time>2019-11-14T17:06:20Z</time>
      </trkpt>
      <trkpt lat="47.24472" lon="2.59908">
        <ele>224</ele>
        <time>2019-11-14T17:06:55Z</time>
      </trkpt>
      <trkpt lat="47.24487" lon="2.59927">
        <ele>225</ele>
        <time>2019-11-14T17:07:22Z</time>
      </trkpt>
      <trkpt lat="47.24511" lon="2.59952">
        <ele>226</ele>
        <time>2019-11-14T17:08:01Z</time>
      </trkpt>
      <trkpt lat="47.24538" lon="2.59984">
        <ele>229</ele>
        <time>2019-11-14T17:08:47Z</time>
      </trkpt>
      <trkpt lat="47.24574" lon="2.60026">
        <ele>232</ele>
        <time>2019-11-14T17:09:49Z</time>
      </trkpt>
      <trkpt lat="47.24642" lon="2.60096">
        <ele>237</ele>
        <time>2019-11-14T17:11:39Z</time>
      </trkpt>
      <trkpt lat="47.24668" lon="2.6012">
        <ele>239</ele>
        <time>2019-11-14T17:12:20Z</time>
      </trkpt>
      <trkpt lat="47.24729" lon="2.60159">
        <ele>243</ele>
        <time>2019-11-14T17:13:49Z</time>
      </trkpt>
      <trkpt lat="47.2478" lon="2.60185">
        <ele>245</ele>
        <time>2019-11-14T17:15:01Z</time>
      </trkpt>
      <trkpt lat="47.24805" lon="2.60205">
        <ele>245</ele>
        <time>2019-11-14T17:15:39Z</time>
      </trkpt>
      <trkpt lat="47.24826" lon="2.60218">
        <ele>246</ele>
        <time>2019-11-14T17:16:09Z</time>
      </trkpt>
      <trkpt lat="47.24853" lon="2.60223">
        <ele>247</ele>
        <time>2019-11-14T17:16:46Z</time>
      </trkpt>
      <trkpt lat="47.24905" lon="2.60238">
        <ele>251</ele>
        <time>2019-11-14T17:17:56Z</time>
      </trkpt>
      <trkpt lat="47.24942" lon="2.60243">
        <ele>253</ele>
        <time>2019-11-14T17:18:46Z</time>
      </trkpt>
      <trkpt lat="47.2497" lon="2.60244">
        <ele>255</ele>
        <time>2019-11-14T17:19:23Z</time>
      </trkpt>
      <trkpt lat="47.25007" lon="2.60266">
        <ele>256</ele>
        <time>2019-11-14T17:20:17Z</time>
      </trkpt>
      <trkpt lat="47.25027" lon="2.60298">
        <ele>255</ele>
        <time>2019-11-14T17:20:56Z</time>
      </trkpt>
      <trkpt lat="47.25078" lon="2.60394">
        <ele>252</ele>
        <time>2019-11-14T17:22:46Z</time>
      </trkpt>
      <trkpt lat="47.25101" lon="2.60428">
        <ele>251</ele>
        <time>2019-11-14T17:23:30Z</time>
      </trkpt>
      <trkpt lat="47.25275" lon="2.60553">
        <ele>262</ele>
        <time>2019-11-14T17:27:48Z</time>
      </trkpt>
      <trkpt lat="47.25349" lon="2.60597">
        <ele>269</ele>
        <time>2019-11-14T17:29:35Z</time>
      </trkpt>
      <trkpt lat="47.25434" lon="2.60632">
        <ele>276</ele>
        <time>2019-11-14T17:31:32Z</time>
      </trkpt>
      <trkpt lat="47.2544" lon="2.60695">
        <ele>278</ele>
        <time>2019-11-14T17:32:30Z</time>
      </trkpt>
      <trkpt lat="47.25457" lon="2.60781">
        <ele>280</ele>
        <time>2019-11-14T17:33:51Z</time>
      </trkpt>
      <trkpt lat="47.25465" lon="2.60845">
        <ele>281</ele>
        <time>2019-11-14T17:34:50Z</time>
      </trkpt>
      <trkpt lat="47.25475" lon="2.60909">
        <ele>280</ele>
        <time>2019-11-14T17:35:50Z</time>
      </trkpt>
      <trkpt lat="47.25489" lon="2.60954">
        <ele>281</ele>
        <time>2019-11-14T17:36:34Z</time>
      </trkpt>
      <trkpt lat="47.25519" lon="2.61006">
        <ele>283</ele>
        <time>2019-11-14T17:37:36Z</time>
      </trkpt>
      <trkpt lat="47.25554" lon="2.61057">
        <ele>285</ele>
        <time>2019-11-14T17:38:42Z</time>
      </trkpt>
      <trkpt lat="47.25584" lon="2.61093">
        <ele>287</ele>
        <time>2019-11-14T17:39:34Z</time>
      </trkpt>
      <trkpt lat="47.25606" lon="2.61137">
        <ele>287</ele>
        <time>2019-11-14T17:40:23Z</time>
      </trkpt>
      <trkpt lat="47.2563" lon="2.612">
        <ele>288</ele>
        <time>2019-11-14T17:41:29Z</time>
      </trkpt>
      <trkpt lat="47.25643" lon="2.61252">
        <ele>289</ele>
        <time>2019-11-14T17:42:19Z</time>
      </trkpt>
      <trkpt lat="47.25643" lon="2.61289">
        <ele>289</ele>
        <time>2019-11-14T17:42:52Z</time>
      </trkpt>
      <trkpt lat="47.25636" lon="2.61418">
        <ele>292</ele>
        <time>2019-11-14T17:44:49Z</time>
      </trkpt>
      <trkpt lat="47.25635" lon="2.61604">
        <ele>295</ele>
        <time>2019-11-14T17:47:38Z</time>
      </trkpt>
      <trkpt lat="47.25622" lon="2.61675">
        <ele>298</ele>
        <time>2019-11-14T17:48:45Z</time>
      </trkpt>
      <trkpt lat="47.25609" lon="2.61704">
        <ele>299</ele>
        <time>2019-11-14T17:49:16Z</time>
      </trkpt>
      <trkpt lat="47.25612" lon="2.61728">
        <ele>299</ele>
        <time>2019-11-14T17:49:38Z</time>
      </trkpt>
      <trkpt lat="47.25612" lon="2.61772">
        <ele>300</ele>
        <time>2019-11-14T17:50:18Z</time>
      </trkpt>
      <trkpt lat="47.25606" lon="2.6182">
        <ele>301</ele>
        <time>2019-11-14T17:51:02Z</time>
      </trkpt>
      <trkpt lat="47.25598" lon="2.6185">
        <ele>301</ele>
        <time>2019-11-14T17:51:31Z</time>
      </trkpt>
      <trkpt lat="47.25581" lon="2.61909">
        <ele>302</ele>
        <time>2019-11-14T17:52:29Z</time>
      </trkpt>
      <trkpt lat="47.25576" lon="2.61937">
        <ele>301</ele>
        <time>2019-11-14T17:52:56Z</time>
      </trkpt>
      <trkpt lat="47.25589" lon="2.61968">
        <ele>296</ele>
        <time>2019-11-14T17:53:29Z</time>
      </trkpt>
      <trkpt lat="47.25597" lon="2.62006">
        <ele>293</ele>
        <time>2019-11-14T17:54:05Z</time>
      </trkpt>
      <trkpt lat="47.25603" lon="2.62042">
        <ele>291</ele>
        <time>2019-11-14T17:54:38Z</time>
      </trkpt>
      <trkpt lat="47.2557" lon="2.6206">
        <ele>294</ele>
        <time>2019-11-14T17:55:25Z</time>
      </trkpt>
      <trkpt lat="47.25542" lon="2.62058">
        <ele>297</ele>
        <time>2019-11-14T17:56:03Z</time>
      </trkpt>
      <trkpt lat="47.25538" lon="2.62093">
        <ele>295</ele>
        <time>2019-11-14T17:56:35Z</time>
      </trkpt>
      <trkpt lat="47.25478" lon="2.62133">
        <ele>294</ele>
        <time>2019-11-14T17:58:03Z</time>
      </trkpt>
      <trkpt lat="47.25512" lon="2.62181">
        <ele>292</ele>
        <time>2019-11-14T17:59:05Z</time>
      </trkpt>
      <trkpt lat="47.25539" lon="2.62258">
        <ele>291</ele>
        <time>2019-11-14T18:00:24Z</time>
      </trkpt>
      <trkpt lat="47.25574" lon="2.62311">
        <ele>292</ele>
        <time>2019-11-14T18:01:31Z</time>
      </trkpt>
      <trkpt lat="47.25573" lon="2.62324">
        <ele>293</ele>
        <time>2019-11-14T18:01:43Z</time>
      </trkpt>
      <trkpt lat="47.25584" lon="2.62378">
        <ele>295</ele>
        <time>2019-11-14T18:02:34Z</time>
      </trkpt>
      <trkpt lat="47.25593" lon="2.62391">
        <ele>295</ele>
        <time>2019-11-14T18:02:51Z</time>
      </trkpt>
      <trkpt lat="47.25596" lon="2.62447">
        <ele>296</ele>
        <time>2019-11-14T18:03:42Z</time>
      </trkpt>
      <trkpt lat="47.25612" lon="2.6252">
        <ele>296</ele>
        <time>2019-11-14T18:04:51Z</time>
      </trkpt>
      <trkpt lat="47.25577" lon="2.62623">
        <ele>294</ele>
        <time>2019-11-14T18:06:35Z</time>
      </trkpt>
      <trkpt lat="47.2551" lon="2.62713">
        <ele>297</ele>
        <time>2019-11-14T18:08:36Z</time>
      </trkpt>
      <trkpt lat="47.2545" lon="2.62784">
        <ele>301</ele>
        <time>2019-11-14T18:10:19Z</time>
      </trkpt>
      <trkpt lat="47.25402" lon="2.62839">
        <ele>305</ele>
        <time>2019-11-14T18:11:40Z</time>
      </trkpt>
      <trkpt lat="47.25386" lon="2.6287">
        <ele>306</ele>
        <time>2019-11-14T18:12:15Z</time>
      </trkpt>
      <trkpt lat="47.25377" lon="2.6292">
        <ele>307</ele>
        <time>2019-11-14T18:13:02Z</time>
      </trkpt>
      <trkpt lat="47.25382" lon="2.62941">
        <ele>306</ele>
        <time>2019-11-14T18:13:22Z</time>
      </trkpt>
      <trkpt lat="47.25399" lon="2.62951">
        <ele>306</ele>
        <time>2019-11-14T18:13:47Z</time>
      </trkpt>
      <trkpt lat="47.25422" lon="2.6296">
        <ele>306</ele>
        <time>2019-11-14T18:14:19Z</time>
      </trkpt>
      <trkpt lat="47.25454" lon="2.6296">
        <ele>306</ele>
        <time>2019-11-14T18:15:01Z</time>
      </trkpt>
      <trkpt lat="47.25481" lon="2.62958">
        <ele>306</ele>
        <time>2019-11-14T18:15:37Z</time>
      </trkpt>
      <trkpt lat="47.25514" lon="2.62968">
        <ele>306</ele>
        <time>2019-11-14T18:16:22Z</time>
      </trkpt>
      <trkpt lat="47.25545" lon="2.62993">
        <ele>308</ele>
        <time>2019-11-14T18:17:10Z</time>
      </trkpt>
      <trkpt lat="47.2557" lon="2.63019">
        <ele>311</ele>
        <time>2019-11-14T18:17:50Z</time>
      </trkpt>
      <trkpt lat="47.25599" lon="2.63058">
        <ele>313</ele>
        <time>2019-11-14T18:18:43Z</time>
      </trkpt>
      <trkpt lat="47.25632" lon="2.63111">
        <ele>316</ele>
        <time>2019-11-14T18:19:48Z</time>
      </trkpt>
      <trkpt lat="47.25656" lon="2.63149">
        <ele>319</ele>
        <time>2019-11-14T18:20:35Z</time>
      </trkpt>
      <trkpt lat="47.25675" lon="2.6319">
        <ele>321</ele>
        <time>2019-11-14T18:21:20Z</time>
      </trkpt>
      <trkpt lat="47.25692" lon="2.63253">
        <ele>321</ele>
        <time>2019-11-14T18:22:21Z</time>
      </trkpt>
      <trkpt lat="47.25711" lon="2.63298">
        <ele>322</ele>
        <time>2019-11-14T18:23:09Z</time>
      </trkpt>
      <trkpt lat="47.25741" lon="2.6336">
        <ele>326</ele>
        <time>2019-11-14T18:24:18Z</time>
      </trkpt>
      <trkpt lat="47.25778" lon="2.63437">
        <ele>330</ele>
        <time>2019-11-14T18:25:44Z</time>
      </trkpt>
      <trkpt lat="47.25799" lon="2.63505">
        <ele>333</ele>
        <time>2019-11-14T18:26:51Z</time>
      </trkpt>
      <trkpt lat="47.25815" lon="2.63572">
        <ele>334</ele>
        <time>2019-11-14T18:27:56Z</time>
      </trkpt>
      <trkpt lat="47.25829" lon="2.63612">
        <ele>336</ele>
        <time>2019-11-14T18:28:37Z</time>
      </trkpt>
      <trkpt lat="47.25831" lon="2.63671">
        <ele>337</ele>
        <time>2019-11-14T18:29:30Z</time>
      </trkpt>
      <trkpt lat="47.25835" lon="2.63719">
        <ele>335</ele>
        <time>2019-11-14T18:30:14Z</time>
      </trkpt>
      <trkpt lat="47.25838" lon="2.63781">
        <ele>333</ele>
        <time>2019-11-14T18:31:10Z</time>
      </trkpt>
      <trkpt lat="47.2584" lon="2.63843">
        <ele>332</ele>
        <time>2019-11-14T18:32:06Z</time>
      </trkpt>
      <trkpt lat="47.25831" lon="2.63888">
        <ele>332</ele>
        <time>2019-11-14T18:32:49Z</time>
      </trkpt>
      <trkpt lat="47.25806" lon="2.63926">
        <ele>331</ele>
        <time>2019-11-14T18:33:37Z</time>
      </trkpt>
      <trkpt lat="47.25764" lon="2.63992">
        <ele>331</ele>
        <time>2019-11-14T18:34:59Z</time>
      </trkpt>
      <trkpt lat="47.25737" lon="2.64017">
        <ele>331</ele>
        <time>2019-11-14T18:35:41Z</time>
      </trkpt>
      <trkpt lat="47.25702" lon="2.64039">
        <ele>329</ele>
        <time>2019-11-14T18:36:32Z</time>
      </trkpt>
      <trkpt lat="47.25679" lon="2.64055">
        <ele>328</ele>
        <time>2019-11-14T18:37:06Z</time>
      </trkpt>
      <trkpt lat="47.25653" lon="2.6409">
        <ele>328</ele>
        <time>2019-11-14T18:37:53Z</time>
      </trkpt>
      <trkpt lat="47.25636" lon="2.64124">
        <ele>329</ele>
        <time>2019-11-14T18:38:31Z</time>
      </trkpt>
      <trkpt lat="47.25616" lon="2.64165">
        <ele>330</ele>
        <time>2019-11-14T18:39:17Z</time>
      </trkpt>
      <trkpt lat="47.25613" lon="2.64195">
        <ele>329</ele>
        <time>2019-11-14T18:39:44Z</time>
      </trkpt>
      <trkpt lat="47.2562" lon="2.64259">
        <ele>328</ele>
        <time>2019-11-14T18:40:43Z</time>
      </trkpt>
      <trkpt lat="47.2566" lon="2.64601">
        <ele>326</ele>
        <time>2019-11-14T18:45:57Z</time>
      </trkpt>
      <trkpt lat="47.2567" lon="2.64636">
        <ele>326</ele>
        <time>2019-11-14T18:46:32Z</time>
      </trkpt>
      <trkpt lat="47.25704" lon="2.64677">
        <ele>327</ele>
        <time>2019-11-14T18:47:30Z</time>
      </trkpt>
      <trkpt lat="47.25819" lon="2.64827">
        <ele>328</ele>
        <time>2019-11-14T18:50:55Z</time>
      </trkpt>
      <trkpt lat="47.25837" lon="2.64858">
        <ele>329</ele>
        <time>2019-11-14T18:51:32Z</time>
      </trkpt>
      <trkpt lat="47.25849" lon="2.64893">
        <ele>329</ele>
        <time>2019-11-14T18:52:08Z</time>
      </trkpt>
      <trkpt lat="47.25849" lon="2.64962">
        <ele>329</ele>
        <time>2019-11-14T18:53:10Z</time>
      </trkpt>
      <trkpt lat="47.25843" lon="2.65086">
        <ele>329</ele>
        <time>2019-11-14T18:55:03Z</time>
      </trkpt>
      <trkpt lat="47.25847" lon="2.65121">
        <ele>328</ele>
        <time>2019-11-14T18:55:35Z</time>
      </trkpt>
      <trkpt lat="47.25848" lon="2.65173">
        <ele>327</ele>
        <time>2019-11-14T18:56:22Z</time>
      </trkpt>
      <trkpt lat="47.25848" lon="2.65208">
        <ele>326</ele>
        <time>2019-11-14T18:56:54Z</time>
      </trkpt>
      <trkpt lat="47.25836" lon="2.65246">
        <ele>323</ele>
        <time>2019-11-14T18:57:32Z</time>
      </trkpt>
      <trkpt lat="47.25827" lon="2.65265">
        <ele>322</ele>
        <time>2019-11-14T18:57:53Z</time>
      </trkpt>
      <trkpt lat="47.25807" lon="2.65294">
        <ele>320</ele>
        <time>2019-11-14T18:58:30Z</time>
      </trkpt>
      <trkpt lat="47.25835" lon="2.65314">
        <ele>321</ele>
        <time>2019-11-14T18:59:12Z</time>
      </trkpt>
      <trkpt lat="47.25931" lon="2.65377">
        <ele>323</ele>
        <time>2019-11-14T19:01:32Z</time>
      </trkpt>
      <trkpt lat="47.25979" lon="2.65386">
        <ele>325</ele>
        <time>2019-11-14T19:02:37Z</time>
      </trkpt>
      <trkpt lat="47.26045" lon="2.65388">
        <ele>325</ele>
        <time>2019-11-14T19:04:05Z</time>
      </trkpt>
      <trkpt lat="47.26099" lon="2.65392">
        <ele>325</ele>
        <time>2019-11-14T19:05:17Z</time>
      </trkpt>
      <trkpt lat="47.26135" lon="2.65394">
        <ele>324</ele>
        <time>2019-11-14T19:06:05Z</time>
      </trkpt>
      <trkpt lat="47.26164" lon="2.65384">
        <ele>325</ele>
        <time>2019-11-14T19:06:45Z</time>
      </trkpt>
      <trkpt lat="47.26198" lon="2.65373">
        <ele>325</ele>
        <time>2019-11-14T19:07:31Z</time>
      </trkpt>
      <trkpt lat="47.26223" lon="2.65365">
        <ele>325</ele>
        <time>2019-11-14T19:08:05Z</time>
      </trkpt>
      <trkpt lat="47.2625" lon="2.65344">
        <ele>325</ele>
        <time>2019-11-14T19:08:46Z</time>
      </trkpt>
      <trkpt lat="47.26277" lon="2.65323">
        <ele>324</ele>
        <time>2019-11-14T19:09:27Z</time>
      </trkpt>
      <trkpt lat="47.26281" lon="2.65314">
        <ele>324</ele>
        <time>2019-11-14T19:09:37Z</time>
      </trkpt>
      <trkpt lat="47.26314" lon="2.65283">
        <ele>324</ele>
        <time>2019-11-14T19:10:29Z</time>
      </trkpt>
      <trkpt lat="47.26416" lon="2.65202">
        <ele>325</ele>
        <time>2019-11-14T19:13:03Z</time>
      </trkpt>
      <trkpt lat="47.26498" lon="2.65135">
        <ele>326</ele>
        <time>2019-11-14T19:15:09Z</time>
      </trkpt>
      <trkpt lat="47.26529" lon="2.65099">
        <ele>326</ele>
        <time>2019-11-14T19:16:01Z</time>
      </trkpt>
      <trkpt lat="47.26556" lon="2.6506">
        <ele>325</ele>
        <time>2019-11-14T19:16:52Z</time>
      </trkpt>
      <trkpt lat="47.26573" lon="2.65025">
        <ele>325</ele>
        <time>2019-11-14T19:17:31Z</time>
      </trkpt>
      <trkpt lat="47.26592" lon="2.65">
        <ele>324</ele>
        <time>2019-11-14T19:18:05Z</time>
      </trkpt>
      <trkpt lat="47.26618" lon="2.64985">
        <ele>322</ele>
        <time>2019-11-14T19:18:42Z</time>
      </trkpt>
      <trkpt lat="47.26796" lon="2.64974">
        <ele>316</ele>
        <time>2019-11-14T19:22:40Z</time>
      </trkpt>
      <trkpt lat="47.26837" lon="2.64973">
        <ele>316</ele>
        <time>2019-11-14T19:23:34Z</time>
      </trkpt>
      <trkpt lat="47.26859" lon="2.64982">
        <ele>315</ele>
        <time>2019-11-14T19:24:05Z</time>
      </trkpt>
      <trkpt lat="47.26881" lon="2.64995">
        <ele>315</ele>
        <time>2019-11-14T19:24:36Z</time>
      </trkpt>
      <trkpt lat="47.26971" lon="2.65127">
        <ele>317</ele>
        <time>2019-11-14T19:27:26Z</time>
      </trkpt>
      <trkpt lat="47.26986" lon="2.65149">
        <ele>317</ele>
        <time>2019-11-14T19:27:54Z</time>
      </trkpt>
      <trkpt lat="47.27005" lon="2.65154">
        <ele>318</ele>
        <time>2019-11-14T19:28:20Z</time>
      </trkpt>
      <trkpt lat="47.27024" lon="2.65153">
        <ele>319</ele>
        <time>2019-11-14T19:28:45Z</time>
      </trkpt>
      <trkpt lat="47.27347" lon="2.64984">
        <ele>324</ele>
        <time>2019-11-14T19:36:23Z</time>
      </trkpt>
      <trkpt lat="47.27382" lon="2.64974">
        <ele>324</ele>
        <time>2019-11-14T19:37:10Z</time>
      </trkpt>
      <trkpt lat="47.27423" lon="2.64964">
        <ele>325</ele>
        <time>2019-11-14T19:38:06Z</time>
      </trkpt>
      <trkpt lat="47.27444" lon="2.64958">
        <ele>326</ele>
        <time>2019-11-14T19:38:34Z</time>
      </trkpt>
      <trkpt lat="47.27463" lon="2.64957">
        <ele>326</ele>
        <time>2019-11-14T19:39:00Z</time>
      </trkpt>
      <trkpt lat="47.27582" lon="2.65123">
        <ele>310</ele>
        <time>2019-11-14T19:42:38Z</time>
      </trkpt>
      <trkpt lat="47.27588" lon="2.65141">
        <ele>309</ele>
        <time>2019-11-14T19:42:56Z</time>
      </trkpt>
      <trkpt lat="47.27592" lon="2.65202">
        <ele>307</ele>
        <time>2019-11-14T19:43:52Z</time>
      </trkpt>
      <trkpt lat="47.27607" lon="2.65275">
        <ele>305</ele>
        <time>2019-11-14T19:45:01Z</time>
      </trkpt>
      <trkpt lat="47.27615" lon="2.65328">
        <ele>303</ele>
        <time>2019-11-14T19:45:50Z</time>
      </trkpt>
      <trkpt lat="47.27615" lon="2.65384">
        <ele>303</ele>
        <time>2019-11-14T19:46:41Z</time>
      </trkpt>
      <trkpt lat="47.27621" lon="2.65442">
        <ele>303</ele>
        <time>2019-11-14T19:47:34Z</time>
      </trkpt>
      <trkpt lat="47.27636" lon="2.65452">
        <ele>303</ele>
        <time>2019-11-14T19:47:56Z</time>
      </trkpt>
      <trkpt lat="47.27649" lon="2.65453">
        <ele>302</ele>
        <time>2019-11-14T19:48:13Z</time>
      </trkpt>
      <trkpt lat="47.27659" lon="2.65454">
        <ele>302</ele>
        <time>2019-11-14T19:48:27Z</time>
      </trkpt>
      <trkpt lat="47.27677" lon="2.65463">
        <ele>301</ele>
        <time>2019-11-14T19:48:52Z</time>
      </trkpt>
      <trkpt lat="47.27717" lon="2.65491">
        <ele>300</ele>
        <time>2019-11-14T19:49:51Z</time>
      </trkpt>
      <trkpt lat="47.27775" lon="2.65553">
        <ele>297</ele>
        <time>2019-11-14T19:51:27Z</time>
      </trkpt>
      <trkpt lat="47.27835" lon="2.65592">
        <ele>292</ele>
        <time>2019-11-14T19:52:54Z</time>
      </trkpt>
      <trkpt lat="47.27853" lon="2.65614">
        <ele>292</ele>
        <time>2019-11-14T19:53:25Z</time>
      </trkpt>
      <trkpt lat="47.27863" lon="2.65635">
        <ele>292</ele>
        <time>2019-11-14T19:53:49Z</time>
      </trkpt>
      <trkpt lat="47.27888" lon="2.65699">
        <ele>293</ele>
        <time>2019-11-14T19:54:55Z</time>
      </trkpt>
      <trkpt lat="47.27912" lon="2.65744">
        <ele>293</ele>
        <time>2019-11-14T19:55:47Z</time>
      </trkpt>
      <trkpt lat="47.2795" lon="2.65699">
        <ele>289</ele>
        <time>2019-11-14T19:56:52Z</time>
      </trkpt>
      <trkpt lat="47.27976" lon="2.6567">
        <ele>286</ele>
        <time>2019-11-14T19:57:36Z</time>
      </trkpt>
      <trkpt lat="47.28008" lon="2.65642">
        <ele>284</ele>
        <time>2019-11-14T19:58:26Z</time>
      </trkpt>
      <trkpt lat="47.28035" lon="2.65626">
        <ele>282</ele>
        <time>2019-11-14T19:59:04Z</time>
      </trkpt>
      <trkpt lat="47.2805" lon="2.65622">
        <ele>282</ele>
        <time>2019-11-14T19:59:25Z</time>
      </trkpt>
      <trkpt lat="47.28063" lon="2.6563">
        <ele>281</ele>
        <time>2019-11-14T19:59:44Z</time>
      </trkpt>
      <trkpt lat="47.28091" lon="2.65642">
        <ele>280</ele>
        <time>2019-11-14T20:00:22Z</time>
      </trkpt>
      <trkpt lat="47.28112" lon="2.65645">
        <ele>280</ele>
        <time>2019-11-14T20:00:51Z</time>
      </trkpt>
      <trkpt lat="47.28133" lon="2.65648">
        <ele>280</ele>
        <time>2019-11-14T20:01:19Z</time>
      </trkpt>
      <trkpt lat="47.28186" lon="2.65623">
        <ele>282</ele>
        <time>2019-11-14T20:02:33Z</time>
      </trkpt>
      <trkpt lat="47.28223" lon="2.65591">
        <ele>285</ele>
        <time>2019-11-14T20:03:30Z</time>
      </trkpt>
      <trkpt lat="47.28243" lon="2.65667">
        <ele>287</ele>
        <time>2019-11-14T20:04:44Z</time>
      </trkpt>
      <trkpt lat="47.28263" lon="2.65746">
        <ele>292</ele>
        <time>2019-11-14T20:06:00Z</time>
      </trkpt>
      <trkpt lat="47.28287" lon="2.65822">
        <ele>295</ele>
        <time>2019-11-14T20:07:16Z</time>
      </trkpt>
      <trkpt lat="47.28252" lon="2.65924">
        <ele>291</ele>
        <time>2019-11-14T20:09:00Z</time>
      </trkpt>
      <trkpt lat="47.28217" lon="2.66032">
        <ele>286</ele>
        <time>2019-11-14T20:10:48Z</time>
      </trkpt>
      <trkpt lat="47.2818" lon="2.66153">
        <ele>281</ele>
        <time>2019-11-14T20:12:48Z</time>
      </trkpt>
      <trkpt lat="47.28152" lon="2.66254">
        <ele>279</ele>
        <time>2019-11-14T20:14:27Z</time>
      </trkpt>
      <trkpt lat="47.28127" lon="2.66349">
        <ele>277</ele>
        <time>2019-11-14T20:15:59Z</time>
      </trkpt>
      <trkpt lat="47.28084" lon="2.66758">
        <ele>265</ele>
        <time>2019-11-14T20:22:14Z</time>
      </trkpt>
      <trkpt lat="47.28073" lon="2.66844">
        <ele>264</ele>
        <time>2019-11-14T20:23:33Z</time>
      </trkpt>
      <trkpt lat="47.28028" lon="2.66997">
        <ele>264</ele>
        <time>2019-11-14T20:26:04Z</time>
      </trkpt>
      <trkpt lat="47.28016" lon="2.67048">
        <ele>264</ele>
        <time>2019-11-14T20:26:53Z</time>
      </trkpt>
      <trkpt lat="47.28015" lon="2.67105">
        <ele>265</ele>
        <time>2019-11-14T20:27:45Z</time>
      </trkpt>
      <trkpt lat="47.28064" lon="2.67241">
        <ele>269</ele>
        <time>2019-11-14T20:30:04Z</time>
      </trkpt>
      <trkpt lat="47.28104" lon="2.6734">
        <ele>276</ele>
        <time>2019-11-14T20:31:48Z</time>
      </trkpt>
      <trkpt lat="47.28115" lon="2.67418">
        <ele>278</ele>
        <time>2019-11-14T20:33:00Z</time>
      </trkpt>
      <trkpt lat="47.28114" lon="2.67495">
        <ele>282</ele>
        <time>2019-11-14T20:34:10Z</time>
      </trkpt>
      <trkpt lat="47.28099" lon="2.6754">
        <ele>284</ele>
        <time>2019-11-14T20:34:56Z</time>
      </trkpt>
      <trkpt lat="47.28071" lon="2.67596">
        <ele>285</ele>
        <time>2019-11-14T20:35:59Z</time>
      </trkpt>
      <trkpt lat="47.28038" lon="2.67641">
        <ele>288</ele>
        <time>2019-11-14T20:36:59Z</time>
      </trkpt>
      <trkpt lat="47.27845" lon="2.67819">
        <ele>299</ele>
        <time>2019-11-14T20:42:02Z</time>
      </trkpt>
      <trkpt lat="47.27985" lon="2.67878">
        <ele>301</ele>
        <time>2019-11-14T20:45:17Z</time>
      </trkpt>
      <trkpt lat="47.27978" lon="2.6793">
        <ele>304</ele>
        <time>2019-11-14T20:46:05Z</time>
      </trkpt>
      <trkpt lat="47.27969" lon="2.68011">
        <ele>307</ele>
        <time>2019-11-14T20:47:19Z</time>
      </trkpt>
      <trkpt lat="47.27994" lon="2.68064">
        <ele>307</ele>
        <time>2019-11-14T20:48:17Z</time>
      </trkpt>
      <trkpt lat="47.28018" lon="2.68094">
        <ele>306</ele>
        <time>2019-11-14T20:48:59Z</time>
      </trkpt>
      <trkpt lat="47.28023" lon="2.68174">
        <ele>304</ele>
        <time>2019-11-14T20:50:12Z</time>
      </trkpt>
      <trkpt lat="47.28029" lon="2.68242">
        <ele>301</ele>
        <time>2019-11-14T20:51:14Z</time>
      </trkpt>
      <trkpt lat="47.28047" lon="2.68311">
        <ele>301</ele>
        <time>2019-11-14T20:52:21Z</time>
      </trkpt>
      <trkpt lat="47.28108" lon="2.68371">
        <ele>302</ele>
        <time>2019-11-14T20:53:59Z</time>
      </trkpt>
      <trkpt lat="47.2804" lon="2.68426">
        <ele>305</ele>
        <time>2019-11-14T20:55:43Z</time>
      </trkpt>
      <trkpt lat="47.27962" lon="2.68482">
        <ele>310</ele>
        <time>2019-11-14T20:57:38Z</time>
      </trkpt>
      <trkpt lat="47.27902" lon="2.68511">
        <ele>313</ele>
        <time>2019-11-14T20:59:03Z</time>
      </trkpt>
      <trkpt lat="47.27829" lon="2.68551">
        <ele>317</ele>
        <time>2019-11-14T21:00:47Z</time>
      </trkpt>
      <trkpt lat="47.2759" lon="2.68622">
        <ele>321</ele>
        <time>2019-11-14T21:06:12Z</time>
      </trkpt>
      <trkpt lat="47.27605" lon="2.68646">
        <ele>320</ele>
        <time>2019-11-14T21:06:41Z</time>
      </trkpt>
      <trkpt lat="47.27661" lon="2.68697">
        <ele>317</ele>
        <time>2019-11-14T21:08:09Z</time>
      </trkpt>
    </trkseg>
  </trk>
</gpx>